Total_Precipitation_Accumulation
1.92 2.11 2.11 2.14 2.21 2.28 2.14 1.89 1.80 1.80 1.87 1.96 2.15 2.22 2.17 2.21 2.32 2.38 2.36 2.66 2.78 2.79 2.75 2.74 2.72 2.84 2.86 2.78 2.89 3.07 3.34 3.42 3.06 2.54 2.42 2.35 2.33 2.21 2.20 2.06 1.93 1.86 1.66
1.80 2.01 2.11 2.10 2.15 2.18 2.05 1.87 1.82 1.84 1.92 1.96 2.10 2.13 2.03 2.03 2.24 2.28 2.34 2.62 2.77 2.66 2.63 2.62 2.41 2.47 2.54 2.44 2.59 2.67 2.81 3.06 3.01 2.70 2.64 2.59 2.53 2.39 2.37 2.31 2.10 1.85 1.59
1.70 2.04 2.23 2.25 2.20 2.14 1.99 1.76 1.69 1.70 1.80 1.86 1.89 1.93 1.99 2.10 2.20 2.21 2.23 2.24 2.26 2.34 2.56 2.67 2.45 2.42 2.32 2.32 2.35 2.34 2.43 2.56 2.78 2.71 2.60 2.63 2.56 2.55 2.45 2.23 2.07 1.96 1.62
1.62 1.82 1.92 1.84 1.79 1.83 1.76 1.63 1.55 1.58 1.65 1.74 1.81 1.92 1.99 2.04 2.09 2.17 2.24 2.16 2.14 2.18 2.32 2.39 2.35 2.32 2.26 2.35 2.26 2.24 2.32 2.47 2.59 2.63 2.56 2.65 2.64 2.59 2.59 2.37 2.36 2.21 2.02
1.34 1.44 1.57 1.57 1.55 1.53 1.60 1.64 1.66 1.74 1.73 1.80 1.87 1.90 1.90 1.89 1.82 1.86 1.95 1.96 2.08 2.04 1.96 1.98 2.00 2.03 2.02 2.05 1.91 2.07 2.29 2.43 2.47 2.48 2.47 2.64 2.79 2.81 2.63 2.55 2.59 2.55 2.35
1.17 1.28 1.50 1.63 1.65 1.64 1.68 1.79 1.84 1.82 1.82 1.85 1.81 1.86 1.87 1.63 1.80 1.82 1.81 1.92 1.99 1.99 1.91 1.81 1.72 1.72 1.65 1.65 1.61 1.70 1.96 2.16 2.28 2.39 2.37 2.48 2.72 2.91 3.00 2.95 2.81 2.69 2.63
1.30 1.44 1.61 1.72 1.80 1.81 1.78 1.91 1.87 1.88 1.94 1.89 1.82 1.83 1.86 1.92 1.97 1.79 1.65 1.62 1.73 1.79 1.77 1.75 1.55 1.46 1.62 1.60 1.62 1.59 1.61 1.74 1.90 2.11 2.20 2.18 2.37 2.64 2.88 2.80 2.92 2.94 2.87
1.58 1.76 1.85 1.94 1.89 1.87 1.88 1.93 2.01 2.09 2.12 2.09 2.03 1.95 1.94 1.92 1.89 1.69 1.68 1.62 1.66 1.68 1.71 1.75 1.73 1.63 1.66 1.78 1.75 1.68 1.57 1.52 1.59 1.69 1.81 1.94 2.16 2.47 2.74 2.70 2.75 2.83 2.86
1.73 1.82 1.96 2.04 2.08 2.10 2.13 2.11 2.20 2.30 2.25 2.16 2.10 2.11 2.05 2.06 2.13 1.94 1.95 1.81 1.82 1.85 1.88 1.88 1.83 1.71 1.82 1.79 1.72 1.72 1.66 1.63 1.68 1.75 1.73 1.85 2.09 2.21 2.37 2.46 2.42 2.48 2.41
1.71 1.83 2.00 2.22 2.27 2.29 2.44 2.53 2.49 2.43 2.28 2.28 2.27 2.23 2.23 2.27 2.50 2.31 2.14 1.99 2.01 2.01 2.10 2.08 2.09 1.92 1.90 1.84 1.70 1.73 1.75 1.75 1.82 1.78 1.75 1.71 1.74 1.94 2.16 2.21 2.36 2.53 2.40
1.74 1.89 2.09 2.27 2.35 2.42 2.58 2.65 2.61 2.55 2.51 2.45 2.38 2.42 2.42 2.41 2.58 2.35 2.16 2.03 2.09 2.22 2.22 2.13 2.16 2.15 1.96 1.96 1.89 1.81 1.80 1.77 1.76 1.79 1.78 1.77 1.80 1.89 1.99 2.11 2.35 2.52 2.49
1.69 1.81 1.95 2.11 2.14 2.22 2.48 2.57 2.64 2.65 2.58 2.48 2.42 2.30 2.36 2.35 2.28 2.16 2.08 2.04 2.13 2.23 2.28 2.20 2.16 2.15 1.93 1.85 1.71 1.68 1.72 1.61 1.53 1.64 1.66 1.68 1.71 1.71 1.79 2.01 2.21 2.28 2.28
1.75 1.89 2.04 2.11 2.15 2.26 2.36 2.39 2.46 2.52 2.46 2.35 2.37 2.32 2.28 2.29 2.28 2.05 1.83 1.81 1.85 1.88 2.02 2.14 2.07 1.96 1.75 1.57 1.53 1.50 1.40 1.27 1.27 1.33 1.33 1.33 1.37 1.45 1.59 1.76 1.95 2.05 2.05
1.80 1.87 1.97 2.09 2.09 2.14 2.26 2.35 2.44 2.54 2.61 2.49 2.37 2.28 2.27 2.22 2.09 1.91 1.73 1.66 1.77 1.89 1.99 2.04 1.91 1.78 1.60 1.45 1.36 1.25 1.18 1.22 1.26 1.26 1.28 1.35 1.41 1.46 1.50 1.57 1.69 1.83 1.87
1.75 1.81 1.84 1.89 2.00 2.09 2.10 2.18 2.18 2.28 2.29 2.26 2.19 2.17 2.17 2.12 1.96 1.88 1.71 1.59 1.71 1.90 1.97 1.98 1.83 1.76 1.66 1.55 1.46 1.40 1.38 1.38 1.33 1.31 1.35 1.35 1.36 1.42 1.43 1.45 1.56 1.58 1.54
1.77 1.80 1.74 1.69 1.78 1.84 1.89 1.87 1.88 1.82 1.83 1.80 1.81 1.80 1.76 1.68 1.56 1.44 1.43 1.45 1.53 1.70 1.72 1.81 1.87 1.82 1.76 1.66 1.55 1.47 1.43 1.40 1.35 1.35 1.37 1.37 1.34 1.34 1.41 1.39 1.44 1.47 1.39
1.69 1.75 1.74 1.70 1.74 1.75 1.77 1.77 1.80 1.74 1.65 1.59 1.55 1.56 1.60 1.56 1.50 1.49 1.52 1.56 1.53 1.58 1.54 1.65 1.75 1.71 1.69 1.63 1.51 1.39 1.36 1.38 1.45 1.43 1.42 1.41 1.45 1.46 1.50 1.47 1.44 1.48 1.42
1.49 1.56 1.66 1.75 1.79 1.82 1.84 1.90 1.96 1.99 1.90 1.71 1.57 1.50 1.44 1.40 1.34 1.38 1.47 1.45 1.39 1.41 1.46 1.58 1.61 1.56 1.52 1.47 1.43 1.37 1.36 1.42 1.51 1.47 1.46 1.46 1.49 1.50 1.51 1.50 1.46 1.44 1.43
1.41 1.44 1.45 1.51 1.61 1.71 1.70 1.73 1.80 1.88 1.90 1.79 1.63 1.53 1.45 1.38 1.29 1.27 1.26 1.16 1.21 1.33 1.47 1.50 1.52 1.52 1.41 1.34 1.32 1.28 1.27 1.32 1.42 1.48 1.47 1.51 1.53 1.56 1.56 1.52 1.55 1.56 1.48
1.41 1.45 1.43 1.40 1.40 1.46 1.51 1.57 1.64 1.72 1.77 1.69 1.59 1.46 1.35 1.28 1.14 1.09 1.05 1.03 1.11 1.19 1.26 1.30 1.33 1.31 1.21 1.22 1.25 1.24 1.23 1.30 1.41 1.45 1.44 1.50 1.57 1.56 1.49 1.46 1.47 1.50 1.43
1.41 1.39 1.39 1.38 1.39 1.43 1.48 1.55 1.58 1.61 1.63 1.54 1.41 1.29 1.20 1.09 1.00 0.94 0.94 1.00 1.08 1.15 1.21 1.26 1.26 1.22 1.21 1.24 1.28 1.31 1.30 1.36 1.43 1.45 1.46 1.51 1.57 1.58 1.50 1.46 1.44 1.46 1.47
1.44 1.34 1.28 1.28 1.36 1.42 1.49 1.56 1.60 1.59 1.51 1.42 1.32 1.17 1.12 0.98 0.91 0.91 0.95 1.01 1.07 1.17 1.21 1.23 1.26 1.24 1.21 1.23 1.29 1.34 1.38 1.41 1.46 1.47 1.44 1.47 1.54 1.57 1.59 1.57 1.58 1.58 1.61
1.54 1.42 1.34 1.30 1.32 1.35 1.37 1.44 1.48 1.45 1.40 1.30 1.20 1.12 1.05 1.00 0.91 0.91 0.98 1.09 1.17 1.17 1.14 1.12 1.15 1.17 1.17 1.20 1.22 1.28 1.35 1.39 1.43 1.43 1.48 1.52 1.51 1.50 1.52 1.47 1.49 1.52 1.54
1.57 1.46 1.33 1.24 1.25 1.29 1.32 1.38 1.39 1.33 1.25 1.20 1.16 1.13 1.08 1.09 1.03 1.01 1.06 1.15 1.11 1.04 1.00 1.02 1.04 1.05 1.08 1.15 1.16 1.17 1.22 1.30 1.30 1.30 1.32 1.37 1.38 1.39 1.44 1.44 1.45 1.47 1.52
1.56 1.48 1.35 1.24 1.23 1.24 1.26 1.33 1.34 1.31 1.25 1.16 1.13 1.13 1.16 1.20 1.15 1.09 1.08 1.06 1.00 0.94 0.89 0.96 1.00 1.00 1.02 1.06 1.10 1.11 1.15 1.14 1.13 1.15 1.18 1.24 1.29 1.36 1.41 1.43 1.45 1.45 1.48
1.37 1.29 1.21 1.13 1.09 1.12 1.19 1.26 1.28 1.28 1.25 1.22 1.23 1.23 1.18 1.14 1.08 1.00 0.97 0.96 0.94 0.92 0.90 0.93 0.98 0.99 1.04 1.04 0.97 0.97 0.95 0.89 0.91 1.00 1.00 1.06 1.19 1.29 1.36 1.43 1.44 1.48 1.48